ARIANE 5 DEB (SYLDA), 26722

Orbit data source: Space-Track

ARIANE 5 DEB (SYLDA), 26722 is space debris in HEO originally from a launch on Thu, 08 Mar 2001 UTC launched from the French Guiana (FRGUI). Debris objects in space refer to the collection of defunct objects orbiting the Earth. Examples of debris include non-operational satellites, rocket bodies, and fragments generated from explosions, collisions, or faulty payload assembly.

Loading next visibility...
Identifier
26722, 2001-011D
Orbit
HEO
Country
Flag of FRFR
Related business
Manufacturer
Astrium
Mission
Spacecraft
Bus & Motor
SYLDA 5, Unknown motor
Mass
440 kg wet, 440 kg dry
Launch date (UTC)
2001-03-08 (25 years ago)
Launch vehicle
Unknown
Launch site
French Guiana (FRGUI)
Object type
Payload
Rocket body
Debris
Shape & HBR
Cyl, 2.5 m
Radar Cross Section
25.270 m², Large (>1 m²)

Expand to show TLE details & history
Last TLE update: 21 hours ago

TLE from 21 hours ago
0 ARIANE 5 DEB (SYLDA)
1 26722U 01011D   25309.50212671 -.00000090  00000-0  21387-2 0  9998
2 26722   2.2248  20.8399 7063666   4.7426 359.5352  2.22929294200923
Epoch: 2025-11-05T12:03Z
TLE epoch observation values (Epoch: 2025-11-05T12:03:03.747Z)
Latitude
-0.00033°
Longitude
154.87195°
Altitude
874.782 km
Speed
9.685 km/s
True Right ascension
01h 22m 26s
True Declination
0° 00' 01"
Sunlit
Object was in full shadow at epoch
Visualization orbit readout
Latitude
Unknown
Longitude
Unknown
Altitude
Unknown
Speed
Unknown
Apparent Right ascension
Unknown
Apparent Declination
Unknown
Sunlit
N/A
Visualization observer readout
Local Sidereal Time
04:53:45
Azimuth
Unknown
Elevation
Unknown
Doppler factor
Unknown
Orbital elements
Apogee altitude
35,867.725 km
Perigee altitude
891.576 km
Semi-major axis
24,757.788 km
Eccentricity
0.70637
Inclination
2.2248°
RAAN
20.8399°
Arg. of periapsis
4.7426°
True anomaly
356.18646°
Mean anomaly
359.5352°
Eccentric anomaly
358.41756°
Mean motion
0.55715 °/min
Orbital period
646.14 mins
BSTAR
0.0021387
Loading maneuver chart data...
Computing Atmospheric mass density...
Loading historical data...
Loading historical data...
Loading historical data...
Loading historical data...
Loading historical data...
Loading historical data...
Loading historical data...
Other satellites on launch #11 in the year 2001 (2001-03-08 UTC)

Documentation

Showing up to 5 results
|